Weather in Ponazirevo

Russia / Kostroma Oblast     58°22′18″N   46°19′14″E
temp.,
°C
wind,
m/s
gust,
m/s
humid.,
%
clouds,
%
prec.,
mm/h
press.,
hPa
HPBL,
m
12 april, mon
mon1200:00+3nnw129799 0.0 103534
03:000n119814 0.0 103713
06:000ene24925 0.0 103973
09:00+7e22660 0.0 1039373
12:00+10se22614 0.0 1039861
15:00+11se226095 0.0 1038975
18:00+8sse2586100 0.0 1038128
21:00+4sse3896100 0.0 1038231
13 april, tue
tue1300:00+3se21097100 0.0 1037264
03:00+3se2898100 0.0 1036220
06:00+4se3996100 0.0 1034293
09:00+8sse3683100 0.0 1033362
12:00+13s4774100 0.0 1031551
15:00+15s487086 0.0 1030725
18:00+13s3883100 0.0 1029247
21:00+10s31192100 0.0 1029248
14 april, wed
wed1400:00+8s21093100 0.0 1028199
03:00+6ssw289199 0.0 1028142
06:00+6s288566 0.0 1027158
09:00+13ssw486089 0.0 1027374
12:00+17ssw47460 0.0 1025863
15:00+18ssw46415 0.0 10241233
18:00+14s375421 0.0 1023196
21:00+10s31173100 0.0 1023209
15 april, thu
thu1500:00+8ssw2975100 0.0 1022173
03:00+7ssw267762 0.0 1021107
06:00+6ssw267880 0.0 1021115
09:00+12sw2456100 0.0 1020350
12:00+16sw3444100 0.0 1019895
15:00+17sw233999 0.0 10171415
18:00+14wnw1154100 0.0 101611
21:00+8nne4986100 0.0 1018363
16 april, fri
fri1600:00+5nne4888100 0.0 1018445
03:00+4nne4891100 0.0 1019641
06:00+2nne51295100 0.1 1020728
09:00+4nne597997 0.3 1022970
12:00+7nne584498 0.1 10222028
15:00+6n695293 0.1 10231613
18:00+4n610465 0.1 10241617
21:00+2n511510 0.1 10261021